Location: De Greiden
(52.9496°N, 5.9137°E)
Time: 01:54:40
(UTC+00:00)

Cosmos 1937 Rocket - Pass Details

Date: 24 January 2021
Orbit: 746 x 780 km, 74.1° (Epoch: 26 February)

Event Time Altitude Azimuth Distance (km) Brightness Sun altitude
Rises 18:01:49 0° 180° (S) 3,247 6.9 -17.0°
Reaches altitude 10° 18:04:17 10° 173° (S) 2,327 6.0 -17.4°
Maximum altitude 18:09:12 40° 105° (ESE) 1,140 3.9 -18.1°
Enters shadow 18:10:46 32° 67° (ENE) 1,314 4.2 -18.4°
